Weather Roundup
Issued by NWS Chicago, IL

Home | Current Version | Previous Version | Graphics & Text | Print | Product List | Glossary On
Versions: 1 2 3 4 5 6 7 8 9 10 11 12 13 14 15 16 17 18 19 20 21 22 23 24 25 26 27 28 29 30 31 32 33 34 35 36 37 38 39 40 41 42 43 44 45 46 47 48 49 50
000
NZUS59 KLOT 241310
HRRLOT

CHICAGO AREA WEATHER ROUNDUP
NATIONAL WEATHER SERVICE CHICAGO/ROMEOVILLE IL
800 AM CDT THU JUL 24 2014

NOTE: "FAIR" INDICATES FEW OR NO CLOUDS BELOW 12,000 FEET WITH NO
SIGNIFICANT WEATHER AND/OR OBSTRUCTIONS TO VISIBILITY.

* THESE STATIONS ARE NOT UNDER NWS QUALITY CONTROL. THEY ALSO MAY NOT
  REPORT WEATHER SUCH AS PRECIPITATION OR FOG.

ILZ005-006-012>014-019>023-241400-
NORTHEAST ILLINOIS

CITY           SKY/WX    TMP DP  RH WIND       PRES   REMARKS
OHARE          MOSUNNY   63  52  67 N12       30.18R
MIDWAY         MOSUNNY   67  56  67 NE13      30.17R
AURORA         SUNNY     62  53  72 NE9       30.19R
LANSING*       PTSUNNY   65  57  75 N8        30.17R
JOLIET*        SUNNY     63  53  71 NE6       30.19R
WAUKEGAN       SUNNY     62  55  77 NE7       30.19R
DUPAGE AIRPORT SUNNY     63  54  72 N8        30.19R
WHEELING       SUNNY     64  55  72 N8        30.20R
KANKAKEE*      SUNNY     63  58  83 N6        30.17R
MORRIS*        SUNNY     61  56  83 CALM      30.18R
LEWIS AIRPORT* SUNNY     63  54  73 NE8       30.18R
NORTHERLY IS     N/A     63  55  75 N10         N/A
$$

WIZ051-052-058>065-066-070>072-241400-
SOUTHEAST WISCONSIN

CITY           SKY/WX    TMP DP  RH WIND       PRES   REMARKS
MILWAUKEE      SUNNY     63  52  67 N8        30.20S
KENOSHA*       SUNNY     61  54  77 N6        30.20R
RACINE*        SUNNY     61  55  81 N10       30.22R
BURLINGTON     SUNNY     58  53  85 CALM      30.19S
WAUKESHA       SUNNY     61  52  72 NE6       30.21S
WEST BEND      SUNNY     59  50  72 CALM      30.20F
$$

INZ001>003-010>013-019-020-241400-
NORTHWEST INDIANA

CITY           SKY/WX    TMP DP  RH WIND       PRES   REMARKS
GARY*          MOSUNNY   66  59  77 N12       30.17R
MICHIGAN CITY* NOT AVBL
RENSSELAER*    NOT AVBL
VALPARAISO     MOSUNNY   63  56  78 VRB5      30.16R
$$

LMZ740>746-241400-
SOUTHERN LAKE MICHIGAN

STATION/POSITION TIME  SKY/WX   TEMP WIND        PRES    VSBY
                                AIR  DIR/SP/G
                 (UTC)          (F)  (DEG/KT/KT) (MB)    (MI)
HARRISON CRIB    1300            62   10/ 15/ 17   N/A
BURNHAM HARBOR   1300            63   10/  8/ 12   N/A
CALUMET HARBOR   1300            64  350/  8/ 11 1020.4R
BURNS HARBOR     NOT AVBL
MICHIGAN CITY    1300            62   30/  8/  9   N/A
$$

ABBREVIATIONS USED IN REMARKS
   TC - TEMPERATURE IN CELSIUS
  WCI - WIND CHILL INDEX
   HX - HEAT INDEX
  VSB - VISIBILITY
$$



USA.gov is the U.S. government's official web portal to all federal, state and local government web resources and services.